User: anonymous   Login
Location: ???????
(55.4362°N, 38.1183°E)
Time: 13:17:15
(UTC+00:00)
Language:

Cosmos 1626 Rocket - Orbit

View from above orbital plane
View from above orbital plane
View from above satellite
View from above satellite

Ground track
Ground track

The orbit data is extracted from the following two-line orbital elements,

1 15495U 85009B   21266.18559079  .00000105  00000-0  97384-5 0  9999
2 15495  82.5264 166.9494 0018974 223.2941 136.6784 14.83923219981155
Epoch (UTC): 23 September 2021 04:27:15
Eccentricity: 0.0018974
inclination: 82.5264°
perigee height: 604 km
apogee height: 630 km
right ascension of ascending node: 166.9494°
argument of perigee: 223.2941°
revolutions per day: 14.83923219
mean anomaly at epoch: 136.6784°
orbit number at epoch: 98115

The dashed part of the orbit path shows where the satellite is in the earth's shadow,  

DLR